Weather History for Kalispell, MT

Change the Weather History Date:

Tuesday, January 1, 2013

  Actual Average Record
Temperature  
Mean Temperature 25 °F 22 °F  
Max Temperature 27 °F 29 °F 53 °F (1939)
Min Temperature 23 °F 15 °F -37 °F (1979)
Degree Days  
Heating Degree Days 40 43  
Month to date heating degree days 40 43  
Since 1 July heating degree days 3150 3557  
Cooling Degree Days 0 0  
Month to date cooling degree days 0 0  
Year to date cooling degree days 0 0  
Moisture  
Dew Point 20 °F    
Average Humidity 85    
Maximum Humidity 96    
Minimum Humidity 74    
Precipitation  
Precipitation T in 0.05 in 0.33 in (1968)
Month to date precipitation T 0.05  
Year to date precipitation T 0.05  
Snow  
Snow T in - - ()
Month to date snowfall T  
Year to date snowfall T  
Since 1 July snowfall 8.8  
Snow Depth 2.00 in    
Sea Level Pressure  
Sea Level Pressure 30.49 in    
Wind  
Wind Speed 2 mph (South)    
Max Wind Speed 8 mph    
Max Gust Speed 12 mph    
Visibility 9 miles    
Events Snow    
T = Trace of Precipitation, MM = Missing Value Source: NWS Daily Summary

Daily Weather History Graph

Daily Weather History Graph

Search for Another Location

Airport:

Trip Planner

Search our weather history database for the weather conditions in past years. The results will help you decide how hot, cold, wet, or windy it might be!

Date:

Astronomy

Jan. 01, 2013 Rise Set
Actual Time 8:28 AM MST 4:53 PM MST
Civil Twilight 7:51 AM MST 5:30 PM MST
Nautical Twilight 7:12 AM MST 6:09 PM MST
Astronomical Twilight 6:34 AM MST 6:47 PM MST
Moon 9:52 PM MST (1/1) 10:21 AM MST (1/1)
Length of Visible Light 9h 38m
Length of Day
8h 25m
Waning Gibbous, 83% of the Moon is Illuminated
Jan 1
Waning Gibbous
Jan 4
Last Quarter
Jan 11
New
Jan 18
First Quarter
Jan 26
Full

Hourly Weather History & Observations

Time (MST) Temp. Windchill Dew Point Humidity Pressure Visibility Wind Dir Wind Speed Gust Speed Precip Events Conditions
12:55 AM 24.1 °F - 21.0 °F 88% 30.41 in 10.0 mi Calm Calm - N/A   Overcast
1:55 AM 23.0 °F - 21.0 °F 92% 30.40 in 10.0 mi Calm Calm - N/A   Overcast
2:55 AM 23.0 °F - 21.0 °F 92% 30.42 in 10.0 mi Calm Calm - N/A   Overcast
3:55 AM 23.0 °F - 19.9 °F 88% 30.40 in 10.0 mi Calm Calm - N/A   Overcast
4:55 AM 23.0 °F - 19.9 °F 88% 30.42 in 10.0 mi Calm Calm - N/A   Overcast
5:55 AM 23.0 °F - 19.9 °F 88% 30.44 in 10.0 mi Calm Calm - N/A   Overcast
6:55 AM 25.0 °F - 18.0 °F 75% 30.46 in 10.0 mi Calm Calm - N/A   Overcast
7:08 AM 24.8 °F 19.1 °F 17.6 °F 74% 30.34 in 10.0 mi WSW 4.6 mph - N/A   Overcast
7:55 AM 25.0 °F 20.7 °F 17.1 °F 72% 30.45 in 10.0 mi WSW 3.5 mph - N/A   Overcast
8:37 AM 24.8 °F - 17.6 °F 74% 30.34 in 10.0 mi Calm Calm - N/A   Overcast
8:55 AM 24.1 °F 17.0 °F 18.0 °F 77% 30.46 in 10.0 mi SE 5.8 mph - N/A   Overcast
9:55 AM 25.0 °F 20.7 °F 19.0 °F 78% 30.49 in 9.0 mi South 3.5 mph - 0.00 in Snow Light Snow
10:55 AM 26.1 °F 19.4 °F 19.0 °F 75% 30.52 in 9.0 mi South 5.8 mph - 0.00 in Snow Light Snow
11:55 AM 26.1 °F 18.4 °F 21.0 °F 81% 30.51 in 5.0 mi SSE 6.9 mph - 0.00 in Snow Light Snow
12:55 PM 26.1 °F 19.4 °F 21.0 °F 81% 30.51 in 7.0 mi SSE 5.8 mph - 0.00 in Snow Light Snow
1:55 PM 26.1 °F 18.4 °F 21.0 °F 81% 30.51 in 9.0 mi South 6.9 mph - 0.00 in Snow Light Snow
2:55 PM 27.0 °F 20.5 °F 21.0 °F 78% 30.52 in 9.0 mi SSE 5.8 mph - 0.00 in Snow Light Snow
3:55 PM 26.1 °F 20.5 °F 19.9 °F 78% 30.54 in 9.0 mi South 4.6 mph - 0.00 in Snow Light Snow
4:55 PM 26.1 °F 20.5 °F 19.9 °F 78% 30.54 in 9.0 mi South 4.6 mph - 0.00 in Snow Light Snow
5:55 PM 25.0 °F 19.3 °F 19.9 °F 81% 30.54 in 9.0 mi South 4.6 mph - 0.00 in Snow Light Snow
6:55 PM 24.1 °F - 19.9 °F 84% 30.55 in 9.0 mi Calm Calm - 0.00 in Snow Light Snow
7:55 PM 24.1 °F - 19.0 °F 81% 30.57 in 9.0 mi Calm Calm - 0.00 in Snow Light Snow
8:55 PM 25.0 °F - 19.9 °F 81% 30.57 in 9.0 mi Calm Calm - 0.00 in Snow Light Snow
9:55 PM 23.0 °F - 19.0 °F 85% 30.58 in 9.0 mi Calm Calm - 0.00 in Snow Light Snow
10:55 PM 23.0 °F - 19.0 °F 85% 30.58 in 9.0 mi Calm Calm - 0.00 in Snow Light Snow
11:55 PM 23.0 °F - 19.9 °F 88% 30.57 in 9.0 mi Calm Calm - 0.00 in Snow Light Snow